AAR8961 RKSS-RKPC

Flight info

Callsign AAR8961
Flight time 0h 46m
Altitude 22000
Route BULTI Y711 DOTOL
Aircraft A321/M-SDE3FGHIRWY/LB1

Departure

Time 2025-09-05 06:44
Airport Gimpo International Airport (RKSS)

Arrival

Time 2025-09-05 07:30
Airport Jeju International Airport (RKPC)
Time Latitude Longitude Altitude Speed Heading
2025-09-05 06:29 37.56372 126.79369 67 ft 0 kts 135°
2025-09-05 06:31 37.56380 126.79359 67 ft 2 kts 135°
2025-09-05 06:31 37.56384 126.79353 67 ft 2 kts 135°
2025-09-05 06:31 37.56406 126.79328 67 ft 2 kts 156°
2025-09-05 06:32 37.56446 126.79335 67 ft 0 kts 223°
2025-09-05 06:33 37.56451 126.79341 67 ft 0 kts 226°
2025-09-05 06:35 37.56411 126.79289 67 ft 11 kts 225°
2025-09-05 06:36 37.56324 126.79060 67 ft 10 kts 314°
2025-09-05 06:36 37.56498 126.78842 67 ft 19 kts 315°
2025-09-05 06:36 37.56596 126.78718 67 ft 19 kts 315°
2025-09-05 06:37 37.56894 126.78345 67 ft 19 kts 315°
2025-09-05 06:37 37.56992 126.78220 67 ft 19 kts 314°
2025-09-05 06:38 37.57181 126.77985 67 ft 18 kts 315°
2025-09-05 06:38 37.57180 126.77861 67 ft 0 kts 201°
2025-09-05 06:39 37.57177 126.77859 67 ft 1 kts 201°
2025-09-05 06:40 37.57049 126.77870 67 ft 7 kts 167°
2025-09-05 06:41 37.57016 126.77898 67 ft 0 kts 135°
2025-09-05 06:42 37.56918 126.78019 67 ft 52 kts 136°
2025-09-05 06:42 37.55714 126.79531 158 ft 170 kts 136°
2025-09-05 06:43 37.53999 126.81705 1492 ft 171 kts 136°
2025-09-05 06:43 37.52233 126.83921 2203 ft 184 kts 135°
2025-09-05 06:44 37.48686 126.86367 2877 ft 215 kts 183°
2025-09-05 06:45 37.45458 126.85981 3401 ft 245 kts 184°
2025-09-05 06:45 37.43652 126.85812 3700 ft 261 kts 183°
2025-09-05 06:46 37.38187 126.85480 5324 ft 276 kts 182°
2025-09-05 06:46 37.36353 126.85395 5949 ft 278 kts 182°
2025-09-05 06:47 37.30444 126.85123 7872 ft 287 kts 182°
2025-09-05 06:47 37.26376 126.84940 9121 ft 292 kts 182°
2025-09-05 06:47 37.24290 126.84847 9761 ft 294 kts 182°
2025-09-05 06:48 37.17898 126.84563 10844 ft 329 kts 183°
2025-09-05 06:49 37.13043 126.84345 11384 ft 358 kts 183°
2025-09-05 06:49 37.08312 126.84133 11918 ft 382 kts 183°
2025-09-05 06:50 37.02882 126.83890 13108 ft 388 kts 184°
2025-09-05 06:50 36.97387 126.83644 14241 ft 395 kts 184°
2025-09-05 06:50 36.94624 126.83521 14789 ft 398 kts 184°
2025-09-05 06:51 36.89859 126.83308 15692 ft 403 kts 184°
2025-09-05 06:51 36.87906 126.83220 16050 ft 405 kts 184°
2025-09-05 06:52 36.80249 126.82878 17390 ft 413 kts 184°
2025-09-05 06:53 36.74582 126.82626 18317 ft 419 kts 184°
2025-09-05 06:53 36.68684 126.82664 19201 ft 426 kts 180°
2025-09-05 06:54 36.62789 126.82894 20032 ft 432 kts 180°
2025-09-05 06:54 36.56718 126.83129 20807 ft 439 kts 180°
2025-09-05 06:54 36.53905 126.83238 21143 ft 442 kts 180°
2025-09-05 06:55 36.48092 126.83456 21799 ft 449 kts 180°
2025-09-05 06:55 36.41789 126.83692 21898 ft 450 kts 180°
2025-09-05 06:56 36.32396 126.83151 21903 ft 448 kts 187°
2025-09-05 06:57 36.26099 126.82452 21904 ft 448 kts 187°
2025-09-05 06:57 36.19857 126.81767 21904 ft 448 kts 186°
2025-09-05 06:58 36.13673 126.81097 21904 ft 448 kts 186°
2025-09-05 06:58 36.07516 126.80433 21904 ft 448 kts 186°
2025-09-05 06:59 36.01330 126.79761 21904 ft 448 kts 186°
2025-09-05 06:59 35.98169 126.79414 21903 ft 448 kts 186°
2025-09-05 06:59 35.91961 126.78735 21904 ft 448 kts 186°
2025-09-05 07:00 35.85275 126.78020 21904 ft 448 kts 186°
2025-09-05 07:01 35.79008 126.77349 21904 ft 448 kts 186°
2025-09-05 07:01 35.72625 126.76659 21904 ft 448 kts 186°
2025-09-05 07:02 35.66410 126.75986 21903 ft 448 kts 186°
2025-09-05 07:02 35.63299 126.75648 21904 ft 448 kts 186°
2025-09-05 07:02 35.57109 126.74977 21904 ft 448 kts 186°
2025-09-05 07:03 35.50896 126.74305 21913 ft 448 kts 187°
2025-09-05 07:03 35.44696 126.73649 21917 ft 449 kts 186°
2025-09-05 07:04 35.35387 126.72658 21912 ft 448 kts 186°
2025-09-05 07:05 35.29164 126.71993 21915 ft 449 kts 186°
2025-09-05 07:05 35.22978 126.71331 21916 ft 449 kts 186°
2025-09-05 07:05 35.19851 126.70995 21916 ft 448 kts 186°
2025-09-05 07:06 35.13642 126.70332 21487 ft 445 kts 186°
2025-09-05 07:06 35.07533 126.69692 20989 ft 442 kts 186°
2025-09-05 07:07 35.01397 126.69047 20485 ft 438 kts 186°
2025-09-05 07:07 34.95347 126.68407 19984 ft 435 kts 186°
2025-09-05 07:08 34.87049 126.67530 19289 ft 430 kts 186°
2025-09-05 07:09 34.80971 126.66888 18777 ft 426 kts 186°
2025-09-05 07:09 34.75082 126.66264 18275 ft 422 kts 186°
2025-09-05 07:09 34.72202 126.65960 18028 ft 420 kts 186°
2025-09-05 07:10 34.66354 126.65343 17522 ft 416 kts 186°
2025-09-05 07:10 34.60638 126.64739 17023 ft 413 kts 186°
2025-09-05 07:11 34.54921 126.64136 16520 ft 409 kts 186°
2025-09-05 07:11 34.49294 126.63542 16021 ft 406 kts 186°
2025-09-05 07:12 34.40870 126.62659 15915 ft 405 kts 186°
2025-09-05 07:13 34.35278 126.62077 15915 ft 405 kts 186°
2025-09-05 07:13 34.29722 126.61496 15557 ft 398 kts 186°
2025-09-05 07:13 34.26973 126.61209 14907 ft 397 kts 186°
2025-09-05 07:14 34.21527 126.60644 13763 ft 391 kts 186°
2025-09-05 07:14 34.16316 126.59280 12701 ft 380 kts 210°
2025-09-05 07:15 34.12207 126.55385 12033 ft 375 kts 222°
2025-09-05 07:15 34.08310 126.51141 11990 ft 376 kts 223°
2025-09-05 07:16 34.02524 126.44798 11755 ft 371 kts 223°
2025-09-05 07:17 33.98564 126.40763 10997 ft 372 kts 214°
2025-09-05 07:17 33.94246 126.37404 10244 ft 368 kts 212°
2025-09-05 07:17 33.92130 126.35790 10014 ft 355 kts 212°
2025-09-05 07:18 33.88193 126.32777 9752 ft 329 kts 212°
2025-09-05 07:18 33.84499 126.29943 9518 ft 303 kts 212°
2025-09-05 07:19 33.81043 126.27284 9252 ft 286 kts 212°
2025-09-05 07:19 33.77693 126.24696 8686 ft 285 kts 212°
2025-09-05 07:20 33.72736 126.20850 7785 ft 282 kts 212°
2025-09-05 07:21 33.69231 126.18825 7205 ft 279 kts 193°
2025-09-05 07:21 33.65391 126.18714 6704 ft 278 kts 173°
2025-09-05 07:21 33.63496 126.18990 6459 ft 276 kts 172°
2025-09-05 07:22 33.59672 126.19667 6057 ft 276 kts 171°
2025-09-05 07:22 33.55881 126.20341 5435 ft 274 kts 171°
2025-09-05 07:23 33.52153 126.20991 4800 ft 271 kts 172°
2025-09-05 07:24 33.46703 126.21960 4217 ft 249 kts 166°
2025-09-05 07:24 33.44387 126.24590 3913 ft 230 kts 117°
2025-09-05 07:25 33.43025 126.27915 3561 ft 215 kts 117°
2025-09-05 07:25 33.42350 126.29488 3362 ft 209 kts 118°
2025-09-05 07:25 33.42046 126.32797 2839 ft 204 kts 61°
2025-09-05 07:26 33.43864 126.35315 2358 ft 199 kts 50°
2025-09-05 07:26 33.45430 126.37932 1832 ft 185 kts 58°
2025-09-05 07:27 33.46684 126.40395 1372 ft 163 kts 58°
2025-09-05 07:27 33.47839 126.42657 938 ft 153 kts 57°
2025-09-05 07:28 33.49507 126.45911 353 ft 152 kts 57°
2025-09-05 07:28 33.50058 126.46985 147 ft 148 kts 56°
2025-09-05 07:29 33.50714 126.48262 127 ft 35 kts 58°
2025-09-05 07:30 33.50788 126.48772 127 ft 12 kts 63°
2025-09-05 07:30 33.50807 126.48834 127 ft 5 kts 126°
2025-09-05 07:30 33.50711 126.48906 127 ft 9 kts 146°
2025-09-05 07:31 33.50745 126.49037 127 ft 10 kts 58°
2025-09-05 07:31 33.50819 126.49183 127 ft 5 kts 58°
2025-09-05 07:32 33.50774 126.49239 127 ft 0 kts 168°
2025-09-05 07:33 33.50764 126.49240 127 ft 0 kts 171°